Temp
-11 -11 -11 -11 -11 -11 -11 -11 -11 -11 -11 -11 -11 -11 -12 -12 -12 -11 -11 -10 -10 -10 -10 -9 -9 -9 -9 -8 -8 -8 -8 -8 -8 -8 -9 -9 -9 -9 -9 -10 -9 -10 -10
-12 -12 -12 -12 -11 -11 -11 -11 -11 -11 -11 -11 -11 -11 -11 -12 -12 -12 -12 -11 -11 -10 -10 -10 -9 -9 -9 -9 -9 -8 -8 -8 -8 -8 -8 -9 -9 -9 -9 -10 -10 -9 -10
-12 -12 -12 -12 -12 -12 -12 -11 -12 -12 -12 -12 -12 -11 -12 -12 -12 -12 -12 -11 -11 -11 -10 -10 -10 -10 -9 -9 -9 -9 -8 -8 -8 -8 -8 -8 -9 -9 -9 -9 -10 -10 -10
-13 -13 -12 -12 -12 -12 -12 -12 -12 -12 -12 -12 -12 -12 -12 -12 -12 -12 -12 -12 -11 -11 -11 -11 -10 -10 -10 -9 -9 -9 -9 -9 -8 -8 -8 -8 -9 -9 -9 -9 -9 -10 -10
-13 -13 -13 -13 -13 -13 -12 -12 -12 -12 -12 -12 -12 -12 -12 -12 -12 -12 -12 -12 -12 -12 -12 -12 -11 -11 -10 -10 -9 -9 -9 -9 -8 -9 -8 -8 -8 -9 -9 -9 -9 -10 -10
-13 -13 -13 -13 -13 -13 -12 -12 -12 -13 -12 -12 -13 -13 -12 -12 -12 -12 -12 -12 -12 -12 -12 -11 -12 -12 -11 -10 -10 -10 -10 -9 -9 -9 -9 -8 -8 -8 -9 -9 -9 -9 -10
-13 -13 -13 -13 -13 -13 -13 -13 -13 -13 -13 -12 -13 -13 -13 -13 -12 -12 -12 -12 -12 -12 -12 -12 -12 -12 -12 -11 -10 -10 -10 -10 -9 -9 -9 -9 -8 -9 -9 -9 -10 -9 -9
-14 -14 -14 -13 -13 -13 -13 -13 -13 -13 -13 -13 -13 -13 -13 -13 -12 -12 -12 -12 -12 -12 -12 -12 -12 -12 -11 -12 -11 -11 -10 -10 -10 -9 -9 -9 -9 -9 -9 -9 -9 -9 -9
-14 -14 -14 -14 -14 -14 -14 -13 -13 -13 -13 -13 -13 -13 -13 -13 -13 -13 -13 -13 -12 -12 -12 -12 -12 -12 -12 -11 -11 -11 -11 -10 -10 -10 -10 -9 -9 -9 -9 -9 -9 -9 -10
-15 -14 -14 -14 -14 -14 -14 -14 -14 -14 -14 -14 -14 -14 -14 -14 -14 -13 -13 -13 -13 -13 -12 -12 -12 -12 -12 -12 -12 -11 -11 -11 -10 -10 -10 -10 -10 -9 -9 -9 -9 -9 -9
-15 -15 -15 -15 -15 -15 -14 -14 -14 -14 -14 -14 -14 -14 -14 -14 -14 -14 -14 -14 -13 -13 -13 -13 -12 -12 -13 -13 -12 -12 -11 -11 -11 -11 -10 -10 -10 -10 -10 -9 -9 -9 -9
-15 -15 -15 -15 -15 -15 -15 -15 -15 -15 -14 -14 -14 -14 -14 -14 -14 -14 -14 -14 -14 -14 -13 -13 -13 -12 -13 -13 -13 -12 -12 -12 -11 -11 -11 -10 -10 -10 -10 -10 -9 -9 -9
-16 -16 -16 -16 -16 -16 -16 -16 -16 -15 -15 -15 -15 -15 -15 -15 -15 -14 -14 -14 -14 -14 -14 -14 -13 -13 -13 -13 -13 -13 -13 -12 -12 -11 -11 -11 -10 -10 -10 -10 -10 -9 -9
-17 -17 -16 -16 -16 -16 -16 -16 -16 -16 -16 -16 -16 -15 -15 -15 -15 -15 -14 -14 -14 -14 -14 -14 -14 -14 -13 -13 -13 -13 -13 -13 -12 -12 -11 -12 -11 -10 -10 -10 -10 -10 -9
-17 -17 -17 -17 -17 -17 -17 -17 -17 -17 -17 -16 -16 -16 -16 -16 -16 -16 -15 -15 -14 -14 -14 -14 -15 -15 -14 -13 -13 -13 -13 -13 -13 -13 -12 -12 -12 -11 -10 -10 -10 -10 -10
-18 -18 -18 -18 -18 -18 -18 -17 -17 -17 -17 -17 -17 -17 -17 -16 -16 -16 -16 -16 -15 -15 -14 -15 -15 -15 -15 -14 -14 -13 -13 -14 -13 -13 -13 -13 -12 -12 -11 -11 -10 -10 -10
-19 -19 -19 -19 -18 -18 -18 -18 -18 -17 -17 -17 -17 -17 -17 -17 -17 -17 -16 -16 -16 -16 -15 -15 -15 -15 -15 -15 -15 -14 -13 -14 -14 -13 -13 -13 -13 -12 -12 -11 -11 -10 -10
-20 -20 -20 -20 -19 -19 -19 -19 -18 -18 -18 -18 -18 -17 -17 -17 -17 -17 -17 -17 -17 -17 -16 -15 -15 -15 -15 -16 -15 -15 -14 -13 -14 -14 -13 -13 -13 -13 -12 -12 -11 -10 -10
-20 -20 -20 -20 -20 -19 -19 -19 -19 -19 -19 -18 -18 -18 -17 -17 -17 -17 -17 -17 -17 -17 -17 -16 -16 -15 -15 -15 -15 -15 -15 -14 -13 -14 -14 -14 -13 -13 -13 -13 -12 -11 -10
-20 -20 -20 -20 -20 -20 -20 -19 -19 -19 -19 -19 -18 -18 -18 -18 -18 -18 -17 -17 -17 -17 -16 -16 -16 -15 -15 -15 -15 -15 -15 -15 -14 -13 -15 -14 -14 -14 -13 -13 -12 -11 -11
-20 -20 -20 -20 -20 -20 -20 -19 -19 -19 -19 -18 -18 -18 -18 -18 -18 -18 -17 -17 -17 -17 -17 -16 -16 -16 -15 -15 -15 -15 -15 -15 -15 -14 -14 -15 -14 -14 -14 -13 -13 -12 -11
-20 -20 -20 -20 -20 -20 -20 -20 -19 -19 -19 -18 -18 -18 -18 -18 -18 -18 -17 -17 -17 -18 -19 -18 -16 -15 -15 -15 -15 -15 -15 -15 -15 -14 -14 -15 -14 -14 -14 -13 -13 -13 -12
-20 -20 -20 -20 -20 -20 -20 -19 -19 -19 -19 -18 -18 -18 -18 -18 -18 -17 -17 -18 -19 -19 -19 -20 -20 -19 -19 -18 -17 -15 -15 -15 -15 -15 -14 -14 -15 -14 -14 -14 -13 -14 -13
-20 -20 -20 -20 -20 -20 -20 -20 -19 -19 -19 -18 -18 -18 -18 -18 -18 -19 -19 -19 -19 -19 -19 -19 -19 -19 -18 -18 -19 -20 -17 -15 -15 -15 -15 -14 -14 -14 -14 -14 -13 -14 -14
-20 -20 -20 -20 -20 -20 -20 -20 -19 -19 -19 -18 -18 -18 -18 -18 -19 -20 -19 -19 -18 -19 -19 -19 -19 -19 -19 -18 -19 -19 -20 -18 -15 -15 -15 -14 -14 -15 -14 -14 -14 -14 -14
-21 -21 -20 -20 -20 -21 -20 -20 -19 -19 -19 -19 -18 -19 -18 -20 -20 -20 -19 -19 -19 -19 -20 -20 -20 -21 -21 -20 -20 -20 -20 -20 -17 -15 -15 -15 -14 -14 -14 -14 -14 -14 -14
Height
5796 5799 5801 5805 5809 5811 5813 5815 5818 5820 5822 5824 5828 5831 5832 5833 5833 5834 5837 5840 5842 5844 5847 5849 5848 5849 5851 5852 5853 5850 5852 5851 5854 5854 5853 5853 5850 5847 5845 5844 5842 5840 5838
5787 5792 5796 5798 5801 5805 5808 5810 5812 5815 5817 5818 5821 5825 5827 5827 5830 5831 5832 5835 5837 5839 5842 5845 5847 5846 5847 5849 5849 5851 5848 5851 5851 5853 5853 5853 5852 5849 5846 5845 5844 5842 5839
5780 5784 5788 5792 5795 5798 5801 5804 5807 5810 5811 5813 5815 5818 5823 5824 5825 5826 5827 5830 5832 5833 5836 5839 5843 5843 5844 5846 5847 5846 5848 5847 5849 5850 5851 5852 5852 5851 5848 5845 5845 5844 5842
5773 5777 5780 5784 5788 5791 5794 5797 5800 5803 5806 5808 5811 5813 5815 5818 5821 5823 5824 5824 5825 5828 5830 5834 5836 5840 5840 5841 5844 5845 5844 5846 5846 5847 5848 5851 5851 5851 5849 5846 5845 5845 5844
5765 5769 5773 5776 5779 5782 5786 5789 5792 5796 5800 5802 5805 5806 5808 5812 5815 5818 5819 5820 5820 5823 5824 5827 5830 5833 5836 5837 5839 5842 5841 5843 5844 5845 5844 5847 5850 5849 5849 5848 5845 5844 5844
5757 5760 5764 5767 5771 5774 5777 5780 5783 5787 5790 5794 5797 5800 5801 5804 5807 5810 5812 5813 5815 5817 5819 5822 5823 5826 5830 5831 5834 5836 5838 5839 5840 5841 5842 5842 5846 5848 5847 5847 5846 5844 5844
5747 5751 5755 5758 5762 5765 5768 5771 5774 5777 5780 5784 5787 5790 5792 5795 5799 5802 5804 5806 5809 5811 5813 5816 5818 5819 5822 5825 5826 5830 5833 5834 5836 5838 5838 5840 5840 5844 5845 5845 5846 5844 5843
5737 5740 5744 5748 5752 5756 5759 5762 5764 5767 5770 5773 5776 5779 5783 5786 5790 5792 5795 5798 5800 5803 5806 5808 5810 5813 5814 5817 5819 5823 5826 5829 5830 5832 5834 5835 5837 5838 5841 5843 5843 5844 5843
5725 5729 5733 5736 5740 5744 5747 5751 5754 5757 5760 5762 5765 5768 5771 5775 5778 5781 5784 5787 5791 5795 5797 5800 5801 5805 5807 5810 5811 5814 5818 5821 5824 5826 5829 5830 5831 5835 5835 5839 5840 5841 5842
5712 5717 5720 5724 5728 5732 5735 5739 5742 5744 5747 5750 5753 5756 5758 5761 5764 5769 5773 5777 5780 5783 5787 5790 5794 5796 5798 5802 5802 5805 5809 5812 5814 5819 5821 5824 5825 5828 5831 5832 5836 5836 5838
5698 5703 5707 5711 5715 5719 5722 5726 5729 5731 5734 5737 5740 5743 5746 5749 5752 5755 5759 5763 5768 5771 5776 5780 5783 5786 5789 5792 5794 5796 5797 5802 5804 5809 5813 5817 5819 5821 5824 5827 5828 5832 5833
5684 5688 5692 5696 5701 5704 5708 5712 5715 5717 5720 5723 5726 5729 5732 5736 5739 5741 5745 5749 5751 5757 5762 5767 5772 5776 5778 5781 5782 5785 5787 5790 5794 5798 5803 5807 5811 5813 5817 5819 5822 5824 5827
5669 5674 5678 5682 5686 5690 5694 5697 5700 5703 5706 5708 5711 5714 5717 5720 5723 5726 5730 5734 5737 5742 5746 5754 5757 5762 5765 5767 5770 5773 5776 5778 5782 5786 5791 5796 5801 5805 5808 5811 5815 5816 5820
5654 5659 5664 5668 5672 5676 5679 5683 5686 5688 5691 5693 5696 5699 5702 5704 5707 5710 5713 5717 5721 5726 5733 5738 5741 5746 5750 5753 5756 5760 5763 5766 5768 5773 5778 5784 5789 5794 5798 5802 5806 5810 5811
5638 5644 5648 5652 5656 5660 5664 5667 5669 5672 5676 5678 5680 5682 5686 5688 5690 5693 5696 5699 5702 5710 5716 5724 5725 5727 5731 5737 5741 5745 5749 5752 5755 5759 5764 5770 5776 5781 5787 5791 5796 5800 5803
5622 5627 5632 5636 5639 5643 5647 5651 5653 5655 5658 5660 5664 5666 5669 5671 5674 5676 5679 5681 5684 5688 5695 5706 5708 5711 5712 5717 5724 5728 5733 5737 5741 5745 5750 5755 5763 5768 5773 5778 5784 5788 5793
5607 5611 5616 5619 5623 5626 5630 5633 5636 5638 5641 5643 5646 5649 5652 5654 5657 5659 5660 5663 5665 5667 5673 5687 5688 5692 5695 5699 5703 5709 5715 5721 5726 5732 5737 5741 5747 5754 5759 5764 5771 5776 5782
5591 5595 5599 5603 5606 5609 5612 5615 5618 5620 5624 5626 5628 5632 5634 5635 5639 5639 5641 5644 5647 5648 5651 5663 5666 5670 5675 5680 5684 5688 5695 5703 5709 5715 5721 5727 5731 5737 5744 5749 5756 5762 5768
5574 5579 5583 5586 5589 5591 5594 5597 5601 5604 5606 5610 5612 5614 5616 5617 5620 5620 5622 5625 5626 5627 5629 5638 5647 5648 5653 5659 5665 5669 5676 5683 5688 5696 5702 5709 5715 5721 5728 5734 5741 5749 5755
5558 5562 5565 5568 5571 5574 5577 5580 5583 5587 5590 5593 5595 5598 5599 5601 5601 5601 5603 5603 5603 5604 5605 5612 5622 5626 5630 5635 5639 5649 5652 5658 5668 5674 5682 5690 5698 5702 5710 5718 5727 5734 5741
5544 5547 5550 5554 5556 5559 5561 5565 5568 5571 5575 5578 5580 5582 5583 5583 5582 5581 5580 5580 5579 5579 5579 5583 5591 5595 5601 5607 5615 5618 5626 5634 5641 5650 5660 5667 5677 5684 5694 5703 5710 5719 5727
5531 5534 5536 5539 5541 5544 5547 5550 5553 5556 5559 5562 5563 5564 5565 5564 5562 5559 5558 5556 5551 5548 5546 5541 5550 5556 5565 5570 5576 5584 5594 5598 5615 5628 5631 5645 5655 5665 5676 5684 5695 5703 5712
5517 5520 5522 5525 5527 5530 5532 5535 5537 5540 5543 5545 5546 5547 5546 5543 5540 5536 5530 5527 5527 5524 5521 5519 5512 5513 5515 5523 5523 5536 5553 5565 5584 5599 5600 5616 5631 5642 5655 5665 5676 5684 5695
5503 5506 5508 5511 5513 5515 5518 5520 5522 5525 5527 5529 5529 5528 5528 5524 5517 5509 5505 5504 5503 5499 5492 5477 5465 5475 5469 5479 5480 5490 5502 5518 5536 5559 5570 5585 5605 5620 5633 5644 5658 5667 5678
5488 5491 5494 5497 5499 5500 5503 5505 5507 5510 5512 5512 5512 5511 5507 5503 5496 5488 5482 5477 5473 5467 5447 5433 5424 5423 5426 5436 5439 5447 5460 5473 5500 5532 5545 5562 5583 5598 5612 5624 5639 5650 5660
5474 5476 5479 5483 5485 5487 5489 5491 5493 5496 5497 5498 5495 5492 5488 5483 5476 5467 5458 5449 5441 5428 5402 5386 5379 5376 5378 5391 5401 5410 5427 5438 5463 5493 5523 5537 5560 5578 5589 5603 5618 5632 5645
Wind_Speed
39 39 37 36 36 35 33 32 30 30 28 30 27 25 19 20 19 15 23 28 24 25 23 23 21 17 14 13 13 7 7 5 9 9 8 9 7 7 8 9 12 12 12
37 37 36 34 33 32 31 29 28 28 26 25 24 22 20 15 19 18 18 22 28 24 26 25 24 21 17 15 13 13 9 9 5 8 8 9 8 6 6 7 10 11 9
36 35 34 34 32 32 32 31 30 28 26 25 24 22 19 17 16 16 19 23 22 28 24 25 26 24 22 19 18 14 15 11 9 6 8 8 9 7 4 5 7 9 7
36 35 35 35 34 34 33 32 32 31 30 28 28 27 25 22 20 19 18 22 21 19 29 22 25 27 26 24 21 20 16 16 12 10 7 9 7 8 7 3 4 6 6
40 39 39 38 37 36 36 36 36 35 35 33 33 32 30 30 29 27 24 25 24 21 13 26 27 25 29 26 25 23 21 18 18 14 11 10 10 7 8 6 3 3 4
45 44 43 43 42 42 41 41 42 40 40 39 38 36 36 35 34 34 31 29 29 27 24 19 21 32 24 28 28 28 25 23 21 20 16 14 11 10 7 8 5 4 2
49 49 49 48 48 47 46 46 46 46 45 44 43 42 41 40 40 38 38 34 33 31 31 27 24 21 30 28 29 31 29 28 25 24 21 18 16 13 11 8 9 7 4
54 53 53 52 51 50 50 49 48 48 47 47 46 45 45 45 44 43 41 40 39 37 35 35 30 30 27 26 30 32 33 32 30 28 26 23 20 18 16 13 10 10 8
58 57 56 55 54 53 52 51 50 50 49 47 47 47 47 47 46 45 44 44 43 42 40 39 37 35 35 34 28 30 34 37 34 33 30 28 25 24 21 18 14 12 12
60 60 59 58 57 56 55 54 53 52 52 51 50 49 50 49 48 48 49 48 46 45 45 44 42 40 38 38 36 32 32 37 38 37 36 32 31 28 26 23 20 16 14
63 62 61 60 60 59 58 58 57 56 56 55 55 55 55 55 55 54 50 50 49 49 49 48 48 46 44 44 41 39 37 39 40 42 40 38 34 34 30 28 26 22 18
65 64 63 62 61 61 60 59 58 59 60 60 60 61 61 60 58 59 58 54 54 51 51 50 50 50 50 48 47 45 43 43 41 43 44 42 41 37 37 33 31 28 24
64 63 63 61 62 61 59 59 59 61 62 62 61 61 60 60 61 61 61 60 58 56 55 52 52 52 53 53 53 52 50 48 46 44 46 44 47 43 41 39 36 33 30
68 67 67 66 66 64 61 59 62 64 64 62 62 61 61 62 62 63 63 64 63 60 58 56 55 54 54 56 56 57 56 54 52 49 46 48 50 50 44 45 42 39 36
68 66 66 64 65 64 65 65 65 65 63 63 63 63 63 64 64 65 65 66 66 64 62 59 60 59 59 59 59 59 61 58 58 54 50 53 52 54 52 48 48 45 41
66 66 66 66 65 64 66 66 66 65 63 63 64 64 64 65 65 66 67 67 68 69 67 62 63 63 63 64 62 63 64 63 62 61 54 50 56 55 57 52 52 50 47
65 65 66 67 66 68 67 67 68 66 64 63 64 65 65 66 66 67 68 69 70 71 72 66 67 67 67 67 66 66 66 68 67 64 63 56 54 60 57 58 56 55 52
65 66 67 68 69 70 71 70 66 64 64 64 65 64 64 66 68 69 70 70 70 72 74 71 72 72 71 70 71 70 70 69 71 68 66 63 58 59 61 61 61 60 57
64 66 67 69 69 69 66 64 63 64 64 63 62 63 64 65 66 67 69 70 71 74 76 76 74 76 76 76 75 75 73 73 75 73 71 68 62 60 63 59 66 63 60
60 61 60 60 59 59 59 60 60 60 59 61 62 62 62 63 65 67 68 70 74 78 81 82 81 83 84 84 84 81 81 80 78 80 71 73 69 67 64 62 68 66 64
54 54 55 54 54 55 56 56 56 56 59 61 61 60 60 62 63 67 72 76 81 85 89 92 92 94 94 93 92 92 90 88 86 83 82 74 75 73 67 68 65 69 67
51 51 52 53 54 54 55 55 56 57 58 57 57 58 58 61 67 72 77 80 85 77 79 93 101 107 107 108 107 106 101 100 95 91 89 81 78 76 71 70 65 71 67
49 50 51 52 53 54 54 55 55 54 54 55 55 56 59 64 70 76 79 75 66 71 77 84 89 97 98 95 100 111 110 108 102 99 100 92 82 81 76 73 69 68 65
51 51 51 50 52 53 53 53 53 52 52 52 53 56 61 66 70 69 65 66 76 85 91 101 93 93 98 96 98 97 103 113 113 106 106 101 90 84 80 77 72 69 66
51 52 52 50 50 52 51 50 50 50 50 51 55 58 61 65 63 64 71 77 81 89 101 94 94 97 100 95 99 98 95 104 115 109 108 106 97 87 83 78 79 73 67
47 50 52 50 50 48 48 48 49 49 51 52 54 56 58 55 55 53 64 73 84 98 88 92 90 91 88 89 94 97 92 98 109 112 108 106 101 91 87 82 82 74 68
Wind_Direction
243 246 247 248 249 251 252 252 255 256 257 262 265 265 274 290 273 274 271 260 264 266 266 269 266 262 272 281 275 265 286 305 322 326 329 332 353 19 21 14 24 40 58
239 241 242 242 243 246 249 251 250 251 251 254 257 256 251 253 280 287 290 278 257 260 263 264 270 264 262 268 269 266 258 276 293 312 316 322 330 354 17 12 14 30 59
240 241 242 243 243 243 244 245 246 248 248 250 255 255 251 247 248 263 283 286 285 255 256 262 262 266 263 261 267 258 262 252 266 277 300 309 316 321 351 9 359 17 46
242 243 244 245 245 245 245 246 245 246 248 249 250 252 256 254 252 255 260 262 282 293 254 258 261 261 264 263 261 267 256 258 251 254 265 290 298 308 312 336 344 5 19
246 247 248 250 251 253 254 254 255 254 254 253 253 254 256 257 259 257 254 259 262 269 278 253 256 263 259 261 262 263 264 255 251 251 240 261 281 287 296 297 294 338 2
246 248 250 251 252 253 255 257 259 260 260 260 259 257 257 259 260 263 258 255 257 262 261 254 258 253 272 259 257 261 261 261 251 247 249 236 252 270 275 280 274 270 318
247 247 249 250 252 253 255 257 258 259 261 261 262 262 261 260 260 258 261 260 258 259 261 257 247 253 255 266 259 254 261 260 258 250 242 244 235 246 260 266 271 251 248
248 249 249 250 251 252 253 255 257 259 260 261 262 262 261 261 261 261 260 258 260 257 256 258 253 250 245 258 270 261 251 258 258 254 247 241 242 232 242 250 256 261 235
248 249 251 252 252 253 254 256 257 259 260 261 263 264 263 262 261 260 258 258 255 256 255 254 256 251 251 250 254 268 260 249 254 256 251 245 239 239 231 240 242 250 247
250 250 251 252 254 254 256 256 257 259 260 261 262 265 267 266 263 261 260 258 257 256 256 255 254 255 254 252 249 252 264 254 251 250 252 247 242 237 237 229 236 235 244
250 251 252 253 254 255 256 256 257 258 259 260 263 264 264 265 265 264 260 260 257 257 256 255 256 254 254 256 251 250 249 258 256 251 248 249 244 240 236 234 225 231 233
250 251 252 252 254 254 254 255 255 255 257 259 262 264 263 261 261 261 261 260 261 257 257 256 255 254 252 252 255 253 252 248 258 258 250 246 246 240 237 233 230 224 228
251 252 253 254 255 255 254 253 254 255 256 261 263 261 258 258 257 257 258 259 258 260 259 255 254 254 252 250 250 252 251 252 247 256 254 251 245 241 239 235 233 225 224
251 251 251 253 254 255 254 254 257 258 258 260 258 255 255 255 255 256 257 257 256 256 256 258 256 251 249 248 247 248 249 249 250 246 254 254 248 243 237 237 232 230 221
252 252 251 250 252 252 255 258 257 257 259 259 255 254 254 255 255 256 257 258 256 254 254 254 255 255 251 245 244 244 245 246 247 247 244 249 251 240 238 237 234 231 226
251 252 252 251 252 253 256 257 258 260 260 257 255 255 255 256 257 258 259 259 259 257 254 253 254 254 253 252 244 241 243 243 244 245 243 240 248 244 238 234 235 232 230
251 250 250 250 251 254 254 256 259 260 256 254 254 255 256 257 259 260 260 260 260 260 258 253 253 251 250 250 250 244 239 240 242 242 242 239 242 247 240 236 234 231 231
249 249 249 250 252 255 256 258 258 256 255 255 257 257 258 260 260 261 261 260 259 258 258 256 254 252 250 248 248 246 242 237 238 241 241 240 237 244 244 237 233 233 229
252 252 253 255 256 257 257 256 255 255 256 256 258 259 260 261 262 262 262 262 261 260 259 257 254 253 252 250 248 248 245 240 235 237 239 239 240 237 243 241 234 232 231
255 255 255 254 253 254 254 254 254 253 254 256 258 259 261 263 263 263 264 265 265 265 265 263 259 256 255 254 252 249 247 244 239 233 236 237 238 237 238 241 237 230 232
255 255 254 254 254 255 254 255 255 256 257 257 258 260 262 263 264 266 268 269 270 271 269 268 265 261 257 254 252 251 249 246 241 236 231 235 236 236 237 238 238 230 231
251 252 253 254 255 255 255 256 256 256 257 258 259 261 263 266 268 271 273 274 276 282 279 276 271 263 259 256 252 248 246 245 242 238 235 230 234 235 236 233 237 233 232
254 255 256 256 255 255 255 255 255 256 257 259 260 263 267 271 274 279 282 279 272 280 281 284 276 268 265 262 255 248 242 240 238 236 236 230 228 232 231 229 233 233 234
255 255 256 257 256 255 254 255 256 256 257 258 262 267 272 273 284 281 272 275 278 279 287 283 275 264 259 257 256 252 242 236 232 230 233 231 224 228 229 228 227 229 234
254 254 255 256 256 255 254 255 255 256 257 262 268 273 280 289 274 276 274 277 289 294 291 279 273 266 261 252 249 249 246 233 229 226 229 230 227 223 226 227 225 227 230
253 253 253 254 255 255 255 255 255 254 258 264 274 281 292 280 274 285 292 294 294 298 286 275 269 264 259 247 246 245 246 240 224 220 223 227 227 222 223 224 223 222 226